Change the Weather History Date:

Saturday, February 23, 2013

  Actual Average Record
Temperature  
Mean Temperature 58 °F -  
Max Temperature 60 °F 65 °F 81 °F (1962)
Min Temperature 55 °F 46 °F 26 °F (1964)
Degree Days  
Heating Degree Days 8    
Growing Degree Days 8 (Base 50)    
Moisture  
Dew Point 54 °F    
Average Humidity 88    
Maximum Humidity 100    
Minimum Humidity 80    
Precipitation  
Precipitation 0.87 in - - ()
Sea Level Pressure  
Sea Level Pressure 29.92 in    
Wind  
Wind Speed 9 mph (North)    
Max Wind Speed 15 mph    
Max Gust Speed 23 mph    
Visibility 9 miles    
Events Rain , Thunderstorm    
Averages and records for this station are not official NWS values.
T = Trace of Precipitation, MM = Missing Value Source: NWS Daily Summary

Daily Weather History Graph

Daily Weather History Graph

Search for Another Location

Airport or City:

Trip Planner

Search our weather history database for the weather conditions in past years. The results will help you decide how hot, cold, wet, or windy it might be!

Date:

Astronomy

Feb. 23, 2013 Rise Set
Actual Time 6:32 AM CST 5:56 PM CST
Civil Twilight 6:08 AM CST 6:20 PM CST
Nautical Twilight 5:40 AM CST 6:48 PM CST
Astronomical Twilight 5:13 AM CST 7:15 PM CST
Moon 4:10 PM CST (2/23) 4:49 AM CST (2/23)
Length of Visible Light 12h 11m
Length of Day
11h 23m
Waxing Gibbous, 95% of the Moon is Illuminated
Feb 23
Waxing Gibbous
Feb 25
Full
Mar 4
Last Quarter
Mar 11
New
Mar 19
First Quarter

Hourly Weather History & Observations

Time (CST) Temp. Dew Point Humidity Pressure Visibility Wind Dir Wind Speed Gust Speed Precip Events Conditions
12:42 AM 57.2 °F 55.4 °F 94% 29.90 in 10.0 mi North 9.2 mph - 0.00 in   Overcast
12:53 AM 57.0 °F 55.0 °F 93% 29.91 in 10.0 mi North 10.4 mph - 0.00 in   Overcast
1:18 AM 57.2 °F 55.4 °F 94% 29.90 in 10.0 mi North 6.9 mph - N/A   Overcast
1:40 AM 57.2 °F 53.6 °F 88% 29.88 in 4.0 mi NNE 11.5 mph - 0.00 in Rain , Thunderstorm Light Thunderstorms and Rain
1:53 AM 55.9 °F 54.0 °F 93% 29.92 in 4.0 mi North 13.8 mph - 0.01 in Rain , Thunderstorm Light Thunderstorms and Rain
2:01 AM 55.4 °F 53.6 °F 94% 29.89 in 2.5 mi NNE 13.8 mph 23.0 mph 0.04 in Rain , Thunderstorm Light Thunderstorms and Rain
2:13 AM 55.4 °F 53.6 °F 94% 29.88 in 3.0 mi NNE 13.8 mph - 0.20 in Rain , Thunderstorm Light Thunderstorms and Rain
2:24 AM 55.4 °F 55.4 °F 100% 29.89 in 6.0 mi NNE 11.5 mph - 0.26 in Rain Light Rain
2:53 AM 55.9 °F 54.0 °F 93% 29.89 in 5.0 mi North 13.8 mph - 0.37 in Rain , Thunderstorm Light Thunderstorms and Rain
3:09 AM 55.4 °F 53.6 °F 94% 29.88 in 1.8 mi North 12.7 mph - 0.14 in Rain , Thunderstorm Heavy Thunderstorms and Rain
3:22 AM 55.4 °F 53.6 °F 94% 29.90 in 3.0 mi North 10.4 mph - 0.45 in Rain Light Rain
3:53 AM 55.9 °F 54.0 °F 93% 29.91 in 10.0 mi NE 8.1 mph - 0.46 in Rain Light Rain
4:13 AM 55.4 °F 53.6 °F 94% 29.91 in 5.0 mi North 8.1 mph - 0.00 in Rain , Thunderstorm Light Thunderstorms and Rain
4:34 AM 55.4 °F 53.6 °F 94% 29.90 in 10.0 mi North 12.7 mph - 0.00 in Rain Light Rain
4:53 AM 55.9 °F 54.0 °F 93% 29.90 in 9.0 mi NNE 15.0 mph - 0.00 in Rain Light Rain
5:19 AM 57.2 °F 53.6 °F 88% 29.90 in 10.0 mi NNE 11.5 mph - 0.01 in   Overcast
5:53 AM 57.0 °F 54.0 °F 89% 29.93 in 10.0 mi NE 8.1 mph - 0.01 in   Mostly Cloudy
6:53 AM 55.9 °F 53.1 °F 90% 29.92 in 10.0 mi NNE 11.5 mph - N/A   Mostly Cloudy
7:23 AM 57.2 °F 53.6 °F 88% 29.91 in 10.0 mi NNE 10.4 mph - N/A   Overcast
7:53 AM 57.0 °F 54.0 °F 89% 29.96 in 10.0 mi NNE 10.4 mph - N/A   Overcast
8:11 AM 57.2 °F 53.6 °F 88% 29.95 in 10.0 mi NNE 9.2 mph - N/A   Overcast
8:53 AM 57.0 °F 54.0 °F 89% 29.95 in 10.0 mi NNE 10.4 mph - N/A   Overcast
9:53 AM 57.0 °F 53.1 °F 87% 29.96 in 10.0 mi NNE 10.4 mph - N/A   Overcast
10:53 AM 57.0 °F 54.0 °F 89% 29.96 in 10.0 mi North 6.9 mph - N/A   Overcast
11:01 AM 57.2 °F 53.6 °F 88% 29.94 in 10.0 mi North 8.1 mph - N/A   Overcast
11:10 AM 57.2 °F 53.6 °F 88% 29.94 in 10.0 mi North 5.8 mph - N/A   Overcast
11:50 AM 57.2 °F 53.6 °F 88% 29.94 in 10.0 mi Calm Calm - N/A   Overcast
11:53 AM 57.0 °F 54.0 °F 89% 29.96 in 10.0 mi Calm Calm - N/A   Overcast
11:55 AM 57.2 °F 53.6 °F 88% 29.95 in 10.0 mi Calm Calm - N/A   Overcast
12:21 PM 57.2 °F 53.6 °F 88% 29.93 in 10.0 mi Calm Calm - N/A   Overcast
12:51 PM 57.2 °F 53.6 °F 88% 29.90 in 10.0 mi North 6.9 mph - N/A   Overcast
12:53 PM 57.9 °F 54.0 °F 87% 29.91 in 10.0 mi North 6.9 mph - N/A   Overcast
12:58 PM 57.2 °F 53.6 °F 88% 29.90 in 10.0 mi North 8.1 mph - N/A   Overcast
1:53 PM 57.9 °F 54.0 °F 87% 29.87 in 9.0 mi North 10.4 mph - N/A   Overcast
2:33 PM 59.0 °F 53.6 °F 82% 29.86 in 10.0 mi North 11.5 mph - N/A   Overcast
2:53 PM 57.9 °F 53.1 °F 84% 29.86 in 10.0 mi North 8.1 mph - N/A   Overcast
3:16 PM 59.0 °F 53.6 °F 82% 29.87 in 10.0 mi North 5.8 mph - N/A   Overcast
3:53 PM 60.1 °F 54.0 °F 80% 29.88 in 10.0 mi North 5.8 mph - N/A   Overcast
4:53 PM 57.9 °F 54.0 °F 87% 29.90 in 10.0 mi NNW 5.8 mph - N/A   Overcast
5:53 PM 59.0 °F 55.0 °F 87% 29.90 in 10.0 mi North 4.6 mph - N/A   Overcast
6:53 PM 59.0 °F 54.0 °F 83% 29.92 in 10.0 mi Calm Calm - N/A   Overcast
7:53 PM 60.1 °F 54.0 °F 80% 29.94 in 10.0 mi NNW 4.6 mph - N/A   Overcast
8:53 PM 59.0 °F 54.0 °F 83% 29.96 in 10.0 mi NNE 4.6 mph - N/A   Overcast
9:53 PM 59.0 °F 55.0 °F 87% 29.97 in 10.0 mi NNE 3.5 mph - N/A   Overcast
10:53 PM 57.9 °F 53.1 °F 84% 29.96 in 10.0 mi NNE 8.1 mph - N/A   Scattered Clouds
11:53 PM 55.9 °F 52.0 °F 87% 29.96 in 10.0 mi NE 6.9 mph - N/A   Partly Cloudy